Volver al catálogo

GSAT 20

ActivoComunicacionesGEO
NORAD 62028·PAYLOAD·🇮🇳 India

Lanzado Nov 18, 2024 desde Cape Canaveral Space Force Station

Loading…

TLE

ActualizadoSource: Space-Track

Época: Sep 14, 2026, 14:07 UTC

1 62028U 24214A   26257.58862106 -.00000028  00000-0  00000-0 0  9990
2 62028   0.0028 170.3965 0001472 202.4152 260.6469  1.00274326  6791

Sigue GSAT 20 en tiempo real con AllMySat

Download on the App Store